This demonstration page uses our WeatherBlox Daily Observations layout. Learn more.

Left ArrowRight Arrow

Hourly Observations for September 24, 2022

Temp ( °F °C ) Dew Point ( °F °C ) Humidity (%) Winds ( mph kmh ) Pressure ( in mb ) Visibility ( mi km ) Precip ( " mm )
12:15 am 00:15 Clear 51 10.8 48 8.7 87 87 WNW 8 13 29.99 1016 10 16 0.00 0.00
12:35 am 00:35 Clear 51 10.7 47 8.5 86 86 WNW 5 7 29.99 1016 10 16 0.00 0.00
12:55 am 00:55 Clear 51 10.6 47 8.5 87 87 WNW 6 9 30.00 1016 10 16 0.00 0.00
1:15 am 01:15 Clear 50 9.8 47 8.1 89 89 NW 6 9 30.01 1016 10 16 0.00 0.00
1:35 am 01:35 Clear 49 9.5 47 8.1 91 91 NNW 6 9 30.01 1016 10 16 0.00 0.00
1:55 am 01:55 Clear 49 9.2 46 7.6 90 90 WNW 5 7 30.03 1017 10 16 0.00 0.00
2:15 am 02:15 Clear 49 9.2 45 7.4 88 88 WNW 5 7 30.03 1017 10 16 0.00 0.00
2:35 am 02:35 Clear 48 8.7 45 7.4 92 92 W 7 11 30.03 1017 10 16 0.00 0.00
2:55 am 02:55 Clear 48 8.7 45 7.4 92 92 WNW 6 9 30.03 1017 10 16 0.00 0.00
3:15 am 03:15 Clear 48 9.1 46 7.5 90 90 WNW 7 11 30.03 1017 10 16 0.00 0.00
3:35 am 03:35 Clear 47 8.5 45 7.2 92 92 WNW 7 11 30.02 1017 10 16 0.00 0.00
3:55 am 03:55 Clear 47 8.5 45 7.1 91 91 WNW 5 7 30.02 1017 10 16 0.00 0.00
4:15 am 04:15 Clear 48 8.7 45 7 89 89 WNW 6 9 30.03 1017 10 16 0.00 0.00
4:35 am 04:35 Clear 47 8.3 44 6.7 90 90 NW 7 11 30.04 1017 10 16 0.00 0.00
4:55 am 04:55 Clear 46 8 44 6.6 91 91 SW 5 7 30.05 1018 10 16 0.00 0.00
5:15 am 05:15 Clear 46 7.8 44 6.6 92 92 WSW 5 7 30.05 1018 10 16 0.00 0.00
5:35 am 05:35 Clear 46 7.9 44 6.5 91 91 W 5 7 30.05 1018 10 16 0.00 0.00
5:55 am 05:55 Clear 46 7.8 43 6.3 90 90 W 6 9 30.05 1018 10 16 0.00 0.00
6:15 am 06:15 Clear 46 7.5 43 6.1 91 91 W 7 11 30.05 1018 10 16 0.00 0.00
6:35 am 06:35 Clear 46 7.6 43 6.2 91 91 WNW 7 11 30.07 1018 10 16 0.00 0.00
6:55 am 06:55 Clear 47 8.6 44 6.6 87 87 WNW 6 9 30.06 1018 10 16 0.00 0.00
7:15 am 07:15 Clear 47 8.1 44 6.5 90 90 NW 3 6 30.06 1018 10 16 0.00 0.00
7:35 am 07:35 Sunny 47 8.1 44 6.5 90 90 Calm 30.06 1018 10 16 0.00 0.00
7:55 am 07:55 Sunny 45 7.3 43 6 91 91 Calm 30.08 1019 10 16 0.00 0.00
8:15 am 08:15 Sunny 49 9.3 46 7.8 90 90 WNW 6 9 30.06 1018 10 16 0.00 0.00
8:35 am 08:35 Sunny 51 10.3 47 8.4 88 88 WNW 7 11 30.05 1018 10 16 0.00 0.00
8:55 am 08:55 Sunny 53 11.9 48 8.7 81 81 WNW 7 11 30.04 1017 10 16 0.00 0.00
9:15 am 09:15 Sunny 56 13.3 48 8.9 75 75 W 7 11 30.03 1017 10 16 0.00 0.00
9:35 am 09:35 Sunny 59 15 48 9 67 67 WNW 7 11 30.01 1016 10 16 0.00 0.00
9:55 am 09:55 Sunny 62 16.5 48 8.8 60 60 WNW 9 15 30.01 1016 10 16 0.00 0.00
10:15 am 10:15 Sunny 65 18.1 49 9.3 56 56 NW 8 13 30.00 1016 10 16 0.00 0.00
10:35 am 10:35 Sunny 67 19.6 48 9.1 51 51 WNW 8 13 29.99 1015 10 16 0.00 0.00
10:55 am 10:55 Sunny 71 21.6 48 9 44 44 WNW 9 15 29.97 1015 10 16 0.00 0.00
11:15 am 11:15 Sunny 73 22.9 46 8 38 38 WNW 8 13 29.95 1014 10 16 0.00 0.00
11:35 am 11:35 Sunny 76 24.5 46 8 35 35 W 8 13 29.93 1014 10 16 0.00 0.00
11:55 am 11:55 Sunny 79 26 45 7 30 30 W 6 9 29.92 1013 10 16 0.00 0.00
12:15 pm 12:15 Sunny 80 26.5 40 4.5 24 24 WNW 3 6 29.91 1013 10 16 0.00 0.00
12:35 pm 12:35 Sunny 81 27.1 42 5.8 26 26 WSW 3 6 29.90 1013 10 16 0.00 0.00
12:55 pm 12:55 Sunny 82 27.9 42 5.3 24 24 WNW 9 15 29.89 1012 10 16 0.00 0.00
1:15 pm 13:15 Sunny 83 28.3 42 5.3 23 23 WNW 6 9 29.88 1012 10 16 0.00 0.00
1:35 pm 13:35 Sunny 84 28.8 42 5.3 22 22 W 8 13 29.87 1011 10 16 0.00 0.00
1:55 pm 13:55 Sunny 84 28.7 40 4.6 22 22 W 10 17 29.86 1011 10 16 0.00 0.00
2:15 pm 14:15 Sunny 84 29 40 4.7 21 21 WNW 8 13 29.86 1011 10 16 0.00 0.00
2:35 pm 14:35 Sunny 85 29.2 41 5.1 22 22 NW 10 17 29.84 1011 10 16 0.00 0.00
2:55 pm 14:55 Sunny 85 29.6 42 5.4 22 22 SW 7 11 29.83 1010 10 16 0.00 0.00
3:15 pm 15:15 Sunny 86 29.9 41 5.2 21 21 WNW 7 11 29.82 1010 10 16 0.00 0.00
3:35 pm 15:35 Sunny 86 29.8 42 5.3 21 21 W 3 6 29.82 1010 10 16 0.00 0.00
3:55 pm 15:55 Sunny 86 30.1 41 5 20 20 WNW 10 17 29.81 1009 10 16 0.00 0.00
4:15 pm 16:15 Sunny 86 30.2 41 4.9 20 20 WNW 8 13 29.81 1009 10 16 0.00 0.00
4:35 pm 16:35 Sunny 86 30.1 41 4.8 20 20 NW 10 17 29.81 1009 10 16 0.00 0.00
4:55 pm 16:55 Sunny 86 30.1 41 5 20 20 NW 13 20 29.81 1009 10 16 0.00 0.00
5:15 pm 17:15 Sunny 86 30 40 4.4 20 20 NW 5 7 29.80 1009 10 16 0.00 0.00
5:35 pm 17:35 Sunny 85 29.5 43 6.1 23 23 NW 9 15 29.81 1010 10 16 0.00 0.00
5:55 pm 17:55 Sunny 84 29.1 42 5.3 22 22 NNW 8 13 29.82 1010 10 16 0.00 0.00
6:15 pm 18:15 Sunny 83 28.5 40 4.6 22 22 NW 10 17 29.82 1010 10 16 0.00 0.00
6:35 pm 18:35 Sunny 82 27.7 40 4.3 22 22 WNW 9 15 29.83 1010 10 16 0.00 0.00
6:55 pm 18:55 Sunny 78 25.6 44 6.5 29 29 WNW 7 11 29.84 1011 7 11 0.00 0.00
7:15 pm 19:15 Sunny 74 23.3 47 8.4 39 39 WNW 7 11 29.88 1012 10 16 0.00 0.00
7:35 pm 19:35 Clear 71 21.5 49 9.2 45 45 WNW 6 9 29.90 1013 10 16 0.00 0.00
7:55 pm 19:55 Clear 69 20.4 46 8 45 45 NW 7 11 29.91 1013 7 11 0.00 0.00
8:15 pm 20:15 Clear 70 20.9 44 6.4 39 39 N 12 19 29.93 1014 10 16 0.00 0.00
8:35 pm 20:35 Clear 68 20.1 43 6 40 40 NNE 9 15 29.96 1015 10 16 0.00 0.00
8:55 pm 20:55 Clear 66 19 43 6 43 43 NNE 8 13 29.98 1015 10 16 0.00 0.00
9:15 pm 21:15 Clear 65 18.4 42 5.8 44 44 NNE 8 13 30.01 1016 10 16 0.00 0.00
9:35 pm 21:35 Clear 64 17.5 42 5.8 46 46 N 6 9 30.02 1017 10 16 0.00 0.00
9:55 pm 21:55 Clear 60 15.8 44 6.5 54 54 N 3 6 30.05 1018 10 16 0.00 0.00
10:15 pm 22:15 Clear 56 13.6 46 7.5 67 67 WNW 3 6 30.08 1019 10 16 0.00 0.00
10:35 pm 22:35 Clear 55 12.5 45 7.4 71 71 NW 5 7 30.09 1019 10 16 0.00 0.00
10:55 pm 22:55 Clear 54 12 46 7.9 76 76 WNW 6 9 30.10 1019 10 16 0.00 0.00
11:15 pm 23:15 Clear 53 11.9 46 7.7 75 75 WNW 5 7 30.11 1020 10 16 0.00 0.00
11:35 pm 23:35 Clear 52 11.3 45 7.4 77 77 WNW 8 13 30.12 1020 10 16 0.00 0.00
11:55 pm 23:55 Clear 53 11.6 45 7 73 73 W 9 15 30.12 1020 10 16 0.00 0.00

Powered by AerisWeather